Location: Torrington
(42.0650°N, 104.1810°W)
Time: 15:15:27
(UTC-06:00)

Daily predictions for brighter satellites

Satellite Brightness Start Highest point End
(mag) Time Altitude Azimuth Time Altitude Azimuth Time Altitude Azimuth
Meteor 2-3 Rocket 3.7 20:49:41 10° S 20:55:17 75° E 21:00:53 10° NNE
Cosmos 1340 Rocket 2.8 20:54:45 10° S 20:58:42 71° E 21:02:44 10° NNE
Cosmos 2056 Rocket 4.0 20:54:25 10° SSE 20:59:09 37° ESE 21:03:52 10° NE
Cosmos 1844 Rocket 3.6 20:55:35 10° SSE 21:00:16 27° ESE 21:04:56 10° NE
Cosmos 1371 Rocket 4.2 20:55:53 10° S 21:01:03 55° ESE 21:06:14 10° NNE
Cosmos 1461 3.1 20:57:33 10° SSW 21:02:15 87° ESE 21:06:50 10° NNE
Cosmos 1939 Rocket 3.1 20:58:36 10° SSE 21:02:20 50° ENE 21:06:08 10° N
Cosmos 1782 3.7 21:01:05 10° NNE 21:04:44 32° ENE 21:08:23 10° SE
Atlas Centaur 2 3.1 21:08:49 10° SSW 21:10:23 12° S 21:11:59 10° SE
SL-27 R/B 3.4 21:10:01 10° N 21:13:25 34° ENE 21:16:20 12° SE
Cosmos 2263 Rocket 3.3 21:09:21 10° SW 21:14:51 51° WNW 21:20:22 10° NNE
Coronas F rocket 1.1 21:13:39 10° S 21:16:17 75° E 21:18:56 10° N
YAOGAN 6 3.9 21:14:37 12° ESE 21:17:10 25° ENE 21:20:05 10° NNE
Cosmos 1408 4.4 21:15:26 12° ESE 21:17:15 16° E 21:19:35 10° NE
SL-8 R/B 3.8 21:14:51 10° SW 21:19:34 57° SE 21:24:17 10° ENE
COS B Rocket 4.2 21:17:24 10° NNE 21:21:18 33° E 21:24:24 13° SSE
CENTAUR R/B 3.2 21:14:43 10° NW 21:22:36 85° WSW 21:30:41 11° SSE
Cosmos 2154 Rocket 4.4 21:19:06 10° SSE 21:24:53 42° E 21:30:41 10° NNE
deb Chang Zheng 4 3.6 21:20:53 10° NNE 21:25:18 75° ESE 21:29:43 10° S
Cosmos 1606 3.6 21:23:11 10° N 21:26:48 34° ENE 21:29:28 16° SE
NOSS 2-2 (D) 3.4 21:27:25 10° SSW 21:31:30 72° ESE 21:36:14 10° NE
Cosmos 2184 Rocket 4.0 21:25:51 10° S 21:32:01 86° W 21:38:15 10° N
Cosmos 1892 3.3 21:30:57 10° SSW 21:34:43 59° W 21:38:33 10° N
Cosmos 1908 Rocket 4.0 21:31:02 11° SSE 21:34:59 43° E 21:39:11 10° NNE
USA 245 3.9 21:35:53 19° ESE 21:37:21 29° ENE 21:40:30 10° N
Cosmos 1624 Rocket 4.1 21:33:18 10° SSW 21:38:35 86° WNW 21:43:55 10° NNE
Meteor 2-10 Rocket 4.2 21:33:09 10° NNW 21:38:54 64° W 21:44:32 10° S
Envisat 3.2 21:34:44 10° S 21:39:47 74° WSW 21:44:54 10° NNW
H-2A R/B 3.6 21:36:42 13° ESE 21:40:00 23° ENE 21:44:05 10° NNE
Cosmos 1733 Rocket 3.3 21:36:36 10° SSW 21:41:01 71° W 21:45:25 10° N
Cosmos 1378 Rocket 4.0 21:38:25 10° N 21:42:33 44° ENE 21:45:10 20° SE
CZ-4 SHROUD 3.2 21:40:54 21° SSE 21:42:44 61° ENE 21:45:50 10° N
NOSS 2-2 (C) 3.6 21:42:04 10° SW 21:46:11 82° NW 21:51:00 10° NE
ERBS 2.4 21:44:46 10° NW 21:48:14 70° SW 21:50:03 26° SSE
Meteor 2-6 Rocket 4.4 21:42:16 10° N 21:48:17 85° W 21:53:51 11° S
CZ-3C R/B 4.2 21:37:39 10° SW 21:51:11 17° SSW 21:55:53 12° SSE
SPOT 1/Viking Rocket 3.7 21:51:07 20° SSE 21:54:43 62° ENE 21:59:52 10° N
Cosmos 407 Rocket 3.5 21:53:10 10° NNW 21:58:27 89° ENE 22:02:06 21° SSE
BREEZE-M DEB (TANK) 3.5 21:56:43 10° WNW 21:58:30 24° NNW 22:00:42 10° NE
Cosmos 1238 Rocket 2.4 21:57:03 10° N 22:00:04 55° E 22:01:14 34° SE
Cosmos 1452 Rocket 3.5 21:57:12 10° S 22:02:22 61° ESE 22:07:35 10° NNE
SPOT 5 3.4 21:58:36 13° S 22:03:17 63° W 22:08:37 10° NNW
PSLV R/B 3.6 22:01:48 24° S 22:03:20 54° W 22:06:15 10° NNW
H-2A R/B 3.4 22:01:39 10° SSW 22:05:40 35° W 22:09:36 10° NNW
COSMOS 2406 4.0 22:03:04 10° NW 22:08:33 47° WSW 22:13:05 15° S
Cosmos 2084 3.8 22:08:44 33° ESE 22:08:46 33° ESE 22:12:15 10° NE
Cosmos 1190 Rocket 4.4 22:03:59 10° NNW 22:09:06 59° WSW 22:12:48 18° S
Cosmos 1862 3.3 22:09:05 18° S 22:12:05 85° W 22:16:12 10° N
Intercosmos 25 3.5 22:11:43 35° SE 22:12:44 45° E 22:15:52 10° NNE
MetOp-B 4.5 22:09:56 16° S 22:14:10 62° WSW 22:19:30 10° NNW
Cosmos 1140 Rocket 3.9 22:10:24 10° N 22:15:23 48° ENE 22:17:37 29° ESE
Terra 2.6 22:16:52 28° ESE 22:18:35 37° ENE 22:22:58 10° N
PSLV R/B 4.0 22:16:06 10° W 22:19:20 37° SSW 22:19:31 37° SSW
Cosmos 2218 Rocket 4.4 22:17:25 26° SE 22:20:33 46° E 22:26:37 10° NNE
Nadezhda 3 Rocket 4.2 22:15:13 10° NNW 22:21:32 71° W 22:26:31 17° S
BREEZE-M DEB (TANK) 4.4 22:19:01 10° W 22:21:57 44° N 22:29:41 10° ENE
Okean 2 Rocket 3.0 22:20:05 31° S 22:22:09 69° E 22:26:33 10° NNE
DELTA 2 DEB (DPAF) 4.4 22:20:32 35° SE 22:22:09 55° ENE 22:26:32 10° N
ARGOS 3.1 22:20:05 26° SSE 22:23:15 85° WSW 22:28:39 10° NNW
ATLAS 5 CENTAUR R/B 3.3 22:18:47 10° NW 22:24:27 41° WSW 22:28:29 20° S
BREEZE-M DEB (TANK) 3.3 22:12:48 10° WNW 22:24:41 90° ESE 22:26:27 35° ESE
Cosmos 2278 Rocket 2.1 22:25:14 13° SSW 22:30:16 75° ESE 22:35:58 10° NNE
CZ-4B R/B 3.6 22:25:47 10° N 22:30:47 73° WNW 22:34:50 15° SSW
CZ-4C R/B 3.3 22:30:16 49° SE 22:31:03 64° ENE 22:35:00 10° N
Cosmos 1825 2.8 22:29:25 21° SSW 22:31:44 54° W 22:35:30 10° N
Cosmos 1844 4.0 22:27:02 10° SSW 22:32:46 72° WNW 22:38:35 10° NNE
Elektron 3 4.0 22:32:32 10° NW 22:35:28 84° NE 22:36:05 58° SE
Cosmos 1850 Rocket 4.3 22:30:37 10° NNW 22:35:51 56° ENE 22:37:42 37° SE
USA 234 3.1 22:29:37 10° NE 22:36:09 70° SE 22:42:38 10° SW
Cosmos 1833 Rocket 3.8 22:31:45 10° N 22:36:44 31° NE 22:39:00 23° E
Cosmos 2341 Rocket 4.3 22:31:20 11° SSW 22:37:30 67° W 22:43:46 10° N
Cosmos 1727 Rocket 4.4 22:32:00 10° N 22:37:57 47° ENE 22:40:11 33° SE
Cosmos 1184 Rocket 3.4 22:37:23 38° SW 22:38:22 56° WNW 22:41:40 10° N
Cosmos 676 Rocket 4.5 22:33:45 10° NNW 22:38:49 53° WSW 22:41:21 28° SSW
Cosmos 1812 4.3 22:37:05 10° NNE 22:40:03 22° ENE 22:40:03 22° ENE
Cosmos 1844 Rocket 3.8 22:38:31 10° SW 22:43:53 44° WNW 22:49:17 10° NNE
Cosmos 1959 Rocket 4.4 22:43:23 33° S 22:46:17 72° E 22:52:23 10° NNE
Cosmos 1954 Rocket 4.3 22:41:23 10° NNW 22:46:30 59° WSW 22:48:36 34° S
Cosmos 1174 4.1 22:44:06 10° NW 22:46:59 39° WSW 22:46:59 39° WSW
Cosmos 1782 Rocket 4.3 22:44:31 21° SSW 22:47:19 51° W 22:51:42 10° N
COSMOS 2487 2.7 22:43:53 10° NNW 22:47:28 59° WSW 22:47:48 56° SW
Timation 2 Rocket 3.8 22:42:03 10° NNW 22:48:05 78° ENE 22:50:18 41° SE
Cosmos 2082 Rocket 2.7 22:44:03 10° NNW 22:49:35 48° ENE 22:51:28 35° ESE
Cosmos 1408 4.4 22:49:55 16° SW 22:52:12 29° WNW 22:55:28 10° NNW
Cosmos 1741 Rocket 3.9 22:48:33 10° NNW 22:53:49 78° ENE 22:55:12 49° SE
IGS 5A 3.3 22:54:28 66° SE 22:54:59 78° ENE 22:59:10 10° N
Cosmos 2297 3.6 22:58:48 43° S 23:00:38 67° ESE 23:06:20 10° NNE
Cosmos 1975 Rocket 4.3 22:59:05 10° NNW 23:03:01 35° W 23:04:33 27° SW
APEX 3.2 23:03:19 79° SE 23:03:24 79° ESE 23:08:14 10° NNE
DNEPR-1 R/B 3.7 22:58:39 10° NNW 23:04:08 89° ENE 23:04:57 62° SE
CARTOSAT-1 3.6 23:04:52 58° SSW 23:05:31 69° WSW 23:09:50 10° NNW
SL-8 Rocket 4.2 23:01:45 25° SSW 23:05:36 68° W 23:11:52 10° N
Cosmos 1339 Rocket 4.5 23:02:07 10° N 23:08:15 68° E 23:09:59 47° SE
Cosmos 1242 Rocket 3.8 23:08:05 10° NNW 23:11:22 32° W 23:11:41 32° WSW
Okean 1 3.9 23:10:54 10° N 23:14:26 46° ENE 23:14:26 46° ENE
Cosmos 1536 Rocket 3.4 23:11:24 10° N 23:15:53 85° W 23:16:12 77° SSW
Cosmos 1110 Rocket 4.4 23:16:22 44° E 23:16:22 44° E 23:21:04 10° NNE
H-2A R/B 2.7 23:17:20 38° SSW 23:19:02 51° W 23:24:16 10° NNW
USA 229 DEB 3.9 23:13:28 10° NNW 23:20:34 69° NE 23:23:13 41° ESE
USA 229 3.9 23:13:34 10° NNW 23:20:40 69° NE 23:23:20 41° ESE
Meteor 2-19 Rocket 4.3 23:21:46 48° S 23:23:38 88° E 23:29:47 10° N
Spot 2 3.9 23:19:11 10° NNE 23:23:39 85° WNW 23:23:46 83° WSW
Cosmos 2151 Rocket 4.2 23:26:21 45° WSW 23:27:15 53° W 23:31:42 10° N
Iridium 4 Rocket 4.4 23:23:14 10° NNE 23:28:43 41° E 23:29:22 40° E
Meteor 1-20 Rocket 4.2 23:36:24 58° SSW 23:37:33 82° W 23:43:09 10° N
Meteor 1-25 Rocket 4.5 23:38:22 45° SW 23:40:07 67° WNW 23:45:58 10° N
Cosmos 2369 Rocket 4.0 23:43:16 18° E 23:43:16 18° E 23:45:48 10° NE
ALOS 2 3.9 23:44:55 31° ENE 23:44:55 31° ENE 23:48:31 10° N
H-2A R/B 4.3 23:43:57 10° NE 23:46:31 24° ENE 23:46:31 24° ENE
ASTEX 1 3.8 23:46:28 10° N 23:51:17 55° W 23:51:57 51° WSW
